Weather History for Lyndonville, VT

Change the Weather History Date:

Monday, June 24, 2013

  Actual Average (K1V4) Record (K1V4)
Temperature  
Mean Temperature 74 °F 68 °F  
Max Temperature 85 °F 79 °F 94 °F (2003)
Min Temperature 64 °F 57 °F 37 °F (1925)
Cooling Degree Days 10 4  
Month to date cooling degree days 63  
Year to date cooling degree days 81  
Since 1 June cooling degree days 63  
Growing Degree Days 24 (Base 50)    
Moisture  
Dew Point 64 °F    
Average Humidity 77    
Maximum Humidity 91    
Minimum Humidity 46    
Precipitation  
Precipitation 0.00 in 0.14 in 2.53 in (1948)
Month to date precipitation 3.19  
Year to date precipitation 16.60  
Sea Level Pressure  
Sea Level Pressure 29.98 in    
Wind  
Wind Speed 3 mph (WSW)    
Max Wind Speed 13 mph    
Max Gust Speed 24 mph    
Visibility 7 miles    
Events Fog , Rain    
T = Trace of Precipitation, MM = Missing Value Source: NWS Daily Summary

Daily Weather History Graph

Daily Weather History Graph

Search for Another Location

Airport:

Trip Planner

Search our weather history database for the weather conditions in past years. The results will help you decide how hot, cold, wet, or windy it might be!

Date:

Astronomy

Jun. 24, 2013 Rise Set
Actual Time 5:03 AM EDT 8:37 PM EDT
Civil Twilight 4:26 AM EDT 9:14 PM EDT
Nautical Twilight 3:38 AM EDT 10:02 PM EDT
Astronomical Twilight 2:34 AM EDT 11:06 PM EDT
Moon 9:31 PM EDT (6/24) 6:32 AM EDT (6/24)
Length of Visible Light 16h 47m
Length of Day
15h 33m
Full, 98% of the Moon is Illuminated
Jun 24
Full
Jun 30
Last Quarter
Jul 8
New
Jul 15
First Quarter
Jul 22
Full

Hourly Weather History & Observations

Time (EDT) Temp. Heat Index Dew Point Humidity Pressure Visibility Wind Dir Wind Speed Gust Speed Precip Events Conditions
12:15 AM 66.0 °F - 63.1 °F 90% 30.03 in 0.2 mi Calm Calm - N/A Fog Fog
12:35 AM 66.6 °F - 63.7 °F 90% 30.02 in 0.2 mi Calm Calm - N/A Fog Fog
12:55 AM 66.7 °F - 63.9 °F 90% 30.02 in 0.2 mi ENE 3.5 mph - N/A Fog Fog
1:15 AM 66.7 °F - 63.9 °F 90% 30.01 in 0.2 mi Calm Calm - N/A Fog Fog
1:35 AM 65.8 °F - 63.0 °F 90% 30.01 in 0.2 mi Calm Calm - N/A Fog Fog
1:55 AM 64.9 °F - 62.1 °F 90% 30.01 in 0.2 mi Calm Calm - N/A Fog Fog
2:15 AM 64.9 °F - 62.1 °F 90% 30.01 in 0.2 mi Calm Calm - N/A Fog Fog
2:35 AM 65.5 °F - 62.6 °F 90% 30.01 in 0.2 mi Calm Calm - N/A Fog Fog
2:55 AM 65.7 °F - 62.8 °F 90% 30.00 in 0.2 mi Calm Calm - N/A Fog Fog
3:15 AM 65.8 °F - 63.0 °F 90% 29.99 in 0.2 mi Calm Calm - N/A Fog Fog
3:35 AM 65.7 °F - 62.8 °F 90% 30.00 in 0.5 mi South 3.5 mph - N/A Fog Fog
3:55 AM 65.8 °F - 63.0 °F 90% 29.99 in 0.5 mi Calm Calm - N/A Fog Fog
4:15 AM 65.7 °F - 62.8 °F 90% 29.99 in 0.2 mi Calm Calm - N/A Rain Light Rain
4:35 AM 65.5 °F - 62.6 °F 90% 29.99 in 0.2 mi Calm Calm - N/A Fog Fog
4:55 AM 65.3 °F - 62.6 °F 91% 29.98 in 0.2 mi Calm Calm - N/A Fog Fog
5:15 AM 65.3 °F - 62.6 °F 91% 29.99 in 0.2 mi Calm Calm - N/A Fog Fog
5:35 AM 65.3 °F - 62.6 °F 91% 29.99 in 0.2 mi Calm Calm - N/A Fog Fog
5:55 AM 65.5 °F - 62.6 °F 90% 29.99 in 0.2 mi Calm Calm - N/A Fog Fog
6:15 AM 65.5 °F - 62.6 °F 90% 29.99 in 0.2 mi Calm Calm - N/A Fog Fog
6:35 AM 65.3 °F - 62.6 °F 91% 29.99 in 0.2 mi Calm Calm - N/A Fog Fog
6:55 AM 65.5 °F - 62.6 °F 90% 30.00 in 0.2 mi Calm Calm - N/A Fog Fog
7:15 AM 65.7 °F - 62.8 °F 90% 30.00 in 0.2 mi Calm Calm - N/A Fog Fog
7:35 AM 66.6 °F - 63.7 °F 90% 30.00 in 0.8 mi Calm Calm - N/A   Overcast
7:55 AM 67.5 °F - 64.6 °F 90% 30.00 in 3.0 mi Calm Calm - N/A   Overcast
8:15 AM 67.6 °F - 64.8 °F 90% 30.01 in 3.0 mi ESE 4.6 mph - N/A   Overcast
8:35 AM 68.7 °F - 65.8 °F 90% 30.01 in 7.0 mi Calm Calm - N/A   Overcast
8:55 AM 69.1 °F - 66.4 °F 91% 30.01 in 10.0 mi West 6.9 mph - N/A   Overcast
9:15 AM 70.3 °F - 67.5 °F 91% 30.01 in 10.0 mi West 3.5 mph - N/A   Mostly Cloudy
9:35 AM 70.7 °F - 67.6 °F 90% 30.01 in 10.0 mi West 10.4 mph - N/A   Mostly Cloudy
9:55 AM 73.6 °F - 70.5 °F 90% 30.01 in 10.0 mi West 6.9 mph - N/A   Mostly Cloudy
10:15 AM 75.6 °F - 66.4 °F 73% 30.01 in 10.0 mi West 8.1 mph - N/A   Overcast
10:35 AM 76.8 °F - 66.0 °F 69% 30.00 in 10.0 mi WNW 8.1 mph 16.1 mph N/A   Mostly Cloudy
10:55 AM 77.7 °F - 65.7 °F 66% 30.00 in 10.0 mi WNW 8.1 mph - N/A   Scattered Clouds
11:15 AM 77.9 °F - 65.7 °F 66% 30.00 in 10.0 mi WNW 6.9 mph - N/A   Clear
11:35 AM 78.8 °F - 65.8 °F 64% 29.99 in 10.0 mi West 9.2 mph - N/A   Clear
11:55 AM 80.1 °F 82.1 °F 66.2 °F 62% 29.99 in 10.0 mi West 8.1 mph - N/A   Clear
12:15 PM 80.8 °F 82.9 °F 66.0 °F 61% 29.99 in 10.0 mi West 4.6 mph - N/A   Scattered Clouds
12:35 PM 81.1 °F 82.9 °F 65.3 °F 58% 29.99 in 10.0 mi West 5.8 mph 17.3 mph N/A   Clear
12:55 PM 82.6 °F 84.7 °F 66.0 °F 57% 29.99 in 10.0 mi WSW 8.1 mph - N/A   Scattered Clouds
1:15 PM 82.0 °F 83.6 °F 64.4 °F 55% 29.99 in 10.0 mi West 10.4 mph - N/A   Scattered Clouds
1:35 PM 83.3 °F 84.8 °F 64.8 °F 53% 29.98 in 10.0 mi West 6.9 mph - N/A   Scattered Clouds
1:55 PM 84.0 °F 85.6 °F 64.4 °F 52% 29.98 in 10.0 mi West 9.2 mph - N/A   Scattered Clouds
2:15 PM 84.4 °F 85.2 °F 62.8 °F 48% 29.97 in 10.0 mi West 12.7 mph - N/A   Scattered Clouds
2:35 PM 84.4 °F 84.8 °F 61.7 °F 46% 29.96 in 10.0 mi West 11.5 mph 17.3 mph N/A   Clear
2:55 PM 85.3 °F 86.4 °F 63.3 °F 48% 29.95 in 10.0 mi West 10.4 mph 17.3 mph N/A   Scattered Clouds
3:15 PM 82.6 °F 83.6 °F 62.8 °F 51% 29.96 in 10.0 mi West 10.4 mph - N/A   Scattered Clouds
3:35 PM 81.0 °F 82.3 °F 63.5 °F 55% 29.96 in 10.0 mi West 6.9 mph - N/A   Mostly Cloudy
3:55 PM 80.8 °F 82.5 °F 64.6 °F 58% 29.95 in 10.0 mi West 5.8 mph - N/A   Scattered Clouds
4:15 PM 79.3 °F - 64.6 °F 60% 29.95 in 10.0 mi West 4.6 mph - N/A   Scattered Clouds
4:35 PM 78.6 °F - 64.2 °F 61% 29.94 in 10.0 mi West 6.9 mph 24.2 mph N/A   Scattered Clouds
4:55 PM 75.9 °F - 63.0 °F 64% 29.95 in 10.0 mi West 5.8 mph 18.4 mph N/A Rain Light Rain
5:15 PM 72.9 °F - 64.6 °F 75% 29.93 in 10.0 mi Calm Calm - N/A Rain Light Rain
5:35 PM 73.8 °F - 65.8 °F 76% 29.92 in 10.0 mi Calm Calm - N/A   Scattered Clouds
5:55 PM 74.3 °F - 65.5 °F 74% 29.93 in 10.0 mi Calm Calm - N/A   Clear
6:15 PM 73.8 °F - 64.4 °F 72% 29.93 in 10.0 mi Calm Calm - N/A   Clear
6:35 PM 74.5 °F - 65.1 °F 72% 29.93 in 10.0 mi Calm Calm - N/A   Clear
6:55 PM 73.8 °F - 65.5 °F 75% 29.93 in 10.0 mi SSE 8.1 mph - N/A   Clear
7:15 PM 72.9 °F - 63.9 °F 73% 29.93 in 10.0 mi SSE 9.2 mph - N/A   Clear
7:35 PM 72.0 °F - 63.5 °F 75% 29.93 in 10.0 mi SSE 8.1 mph - N/A   Clear
7:55 PM 71.2 °F - 63.7 °F 77% 29.94 in 10.0 mi South 6.9 mph - N/A   Clear
8:15 PM 70.5 °F - 63.9 °F 79% 29.96 in 10.0 mi Calm Calm - N/A   Scattered Clouds
8:35 PM 72.5 °F - 64.2 °F 75% 29.98 in 10.0 mi NW 5.8 mph - N/A Rain Light Rain
8:55 PM 70.2 °F - 60.6 °F 72% 29.98 in 7.0 mi North 5.8 mph - N/A Rain Light Rain
9:15 PM 68.7 °F - 61.0 °F 76% 29.97 in 10.0 mi NE 3.5 mph - N/A   Scattered Clouds
9:35 PM 68.0 °F - 61.9 °F 81% 29.97 in 10.0 mi Calm Calm - N/A Rain Light Rain
9:55 PM 66.7 °F - 61.5 °F 83% 29.98 in 10.0 mi WNW 3.5 mph - N/A   Scattered Clouds
10:15 PM 66.6 °F - 62.1 °F 85% 29.98 in 10.0 mi Calm Calm - N/A   Scattered Clouds
10:35 PM 66.7 °F - 61.9 °F 84% 29.98 in 10.0 mi Calm Calm - N/A   Mostly Cloudy
10:55 PM 66.9 °F - 61.7 °F 83% 29.98 in 7.0 mi South 5.8 mph - N/A Rain Light Rain
11:15 PM 67.3 °F - 61.7 °F 82% 29.96 in 10.0 mi SSE 5.8 mph - N/A   Mostly Cloudy
11:35 PM 67.3 °F - 60.4 °F 79% 29.95 in 10.0 mi SE 4.6 mph - N/A   Clear
11:55 PM 66.7 °F - 61.9 °F 84% 29.94 in 10.0 mi SE 6.9 mph - N/A   Clear